Location: Unspecified
(0.0000°N, 0.0000°E)
Time: 16:21:31
(UTC+00:00)

Transit 4A - Pass Details

Date: 24 November 2019
Orbit: 870 x 975 km, 66.8° (Epoch: 13 December)

Event Time Altitude Azimuth Distance (km) Brightness Sun altitude
Rises 08:02:03 0° 316° (NW) 3,442 10.4 31.5°
Reaches altitude 10° 08:04:56 10° 303° (WNW) 2,509 9.7 32.1°
Maximum altitude 08:09:34 25° 250° (WSW) 1,699 9.2 33.2°
Drops below altitude 10° 08:14:15 10° 196° (SSW) 2,542 10.4 34.2°
Sets 08:17:13 0° 183° (S) 3,498 11.2 34.9°
